Time,TemperatureF,DewpointF,PressureIn,WindDirection,WindDirectionDegrees,WindSpeedMPH,WindSpeedGustMPH,Humidity,HourlyPrecipIn,Conditions,Clouds,dailyrainin,SoftwareType,DateUTC
2013-09-05 00:09:00,66.9,61.0,30.09,East,79,0.0,1.0,80,0.00,,,0.00,weatherlink.com 1.10,2013-09-05 05:09:00,
2013-09-05 00:24:00,66.6,60.0,30.09,East,82,1.0,1.0,80,0.00,,,0.00,weatherlink.com 1.10,2013-09-05 05:24:00,
2013-09-05 00:39:00,67.5,61.0,30.09,East,96,1.0,1.0,79,0.00,,,0.00,weatherlink.com 1.10,2013-09-05 05:39:00,
2013-09-05 00:54:00,68.0,61.0,30.09,East,88,1.0,1.0,78,0.00,,,0.00,weatherlink.com 1.10,2013-09-05 05:54:00,
2013-09-05 01:10:00,67.9,61.0,30.09,ENE,76,1.0,1.0,78,0.00,,,0.00,weatherlink.com 1.10,2013-09-05 06:10:00,
2013-09-05 01:24:00,68.0,61.0,30.09,East,96,1.0,2.0,77,0.00,,,0.00,weatherlink.com 1.10,2013-09-05 06:24:00,
2013-09-05 01:39:00,67.7,60.0,30.09,East,97,0.0,1.0,77,0.00,,,0.00,weatherlink.com 1.10,2013-09-05 06:39:00,
2013-09-05 01:54:00,67.1,60.0,30.09,East,81,0.0,1.0,78,0.00,,,0.00,weatherlink.com 1.10,2013-09-05 06:54:00,
2013-09-05 02:09:00,65.8,60.0,30.09,East,81,0.0,1.0,81,0.00,,,0.00,weatherlink.com 1.10,2013-09-05 07:09:00,
2013-09-05 02:24:00,65.9,60.0,30.09,East,82,0.0,1.0,80,0.00,,,0.00,weatherlink.com 1.10,2013-09-05 07:24:00,
2013-09-05 02:39:00,66.3,60.0,30.09,ESE,104,1.0,2.0,79,0.00,,,0.00,weatherlink.com 1.10,2013-09-05 07:39:00,
2013-09-05 02:54:00,66.3,60.0,30.09,ESE,107,1.0,1.0,79,0.00,,,0.00,weatherlink.com 1.10,2013-09-05 07:54:00,
2013-09-05 03:09:00,65.9,60.0,30.09,East,101,1.0,2.0,80,0.00,,,0.00,weatherlink.com 1.10,2013-09-05 08:09:00,
2013-09-05 03:24:00,65.7,60.0,30.09,ESE,107,1.0,1.0,81,0.00,,,0.00,weatherlink.com 1.10,2013-09-05 08:24:00,
2013-09-05 03:39:00,65.0,59.0,30.09,ESE,105,1.0,1.0,82,0.00,,,0.00,weatherlink.com 1.10,2013-09-05 08:39:00,
2013-09-05 03:54:00,64.5,59.0,30.09,ESE,103,0.0,1.0,83,0.00,,,0.00,weatherlink.com 1.10,2013-09-05 08:54:00,
2013-09-05 04:10:00,64.1,59.0,30.09,ESE,103,0.0,1.0,84,0.00,,,0.00,weatherlink.com 1.10,2013-09-05 09:10:00,
2013-09-05 04:25:00,63.6,59.0,30.09,ESE,103,0.0,0.0,85,0.00,,,0.00,weatherlink.com 1.10,2013-09-05 09:25:00,
2013-09-05 04:40:00,63.8,59.0,30.10,ESE,103,0.0,0.0,85,0.00,,,0.00,weatherlink.com 1.10,2013-09-05 09:40:00,
2013-09-05 04:55:00,63.8,59.0,30.10,ESE,103,0.0,0.0,85,0.00,,,0.00,weatherlink.com 1.10,2013-09-05 09:55:00,
2013-09-05 05:10:00,63.4,59.0,30.10,ESE,103,0.0,0.0,86,0.00,,,0.00,weatherlink.com 1.10,2013-09-05 10:10:00,
2013-09-05 05:25:00,63.6,59.0,30.10,ESE,103,0.0,0.0,85,0.00,,,0.00,weatherlink.com 1.10,2013-09-05 10:25:00,
2013-09-05 05:40:00,63.4,59.0,30.10,ESE,103,0.0,1.0,85,0.00,,,0.00,weatherlink.com 1.10,2013-09-05 10:40:00,
2013-09-05 05:55:00,63.2,59.0,30.10,ESE,103,0.0,1.0,86,0.00,,,0.00,weatherlink.com 1.10,2013-09-05 10:55:00,
2013-09-05 06:10:00,62.8,59.0,30.10,ESE,103,0.0,0.0,86,0.00,,,0.00,weatherlink.com 1.10,2013-09-05 11:10:00,
2013-09-05 06:25:00,62.9,59.0,30.10,ESE,103,0.0,1.0,86,0.00,,,0.00,weatherlink.com 1.10,2013-09-05 11:25:00,
2013-09-05 06:40:00,62.8,59.0,30.11,ESE,103,0.0,0.0,86,0.00,,,0.00,weatherlink.com 1.10,2013-09-05 11:40:00,
2013-09-05 06:55:00,62.8,59.0,30.11,ESE,103,0.0,1.0,86,0.00,,,0.00,weatherlink.com 1.10,2013-09-05 11:55:00,
2013-09-05 07:10:00,63.1,59.0,30.11,ESE,103,0.0,0.0,86,0.00,,,0.00,weatherlink.com 1.10,2013-09-05 12:10:00,
2013-09-05 07:25:00,63.7,59.0,30.11,ESE,103,0.0,1.0,85,0.00,,,0.00,weatherlink.com 1.10,2013-09-05 12:25:00,
2013-09-05 07:40:00,64.3,59.0,30.12,ESE,103,0.0,1.0,84,0.00,,,0.00,weatherlink.com 1.10,2013-09-05 12:40:00,
2013-09-05 07:55:00,65.2,60.0,30.12,ESE,103,0.0,1.0,84,0.00,,,0.00,weatherlink.com 1.10,2013-09-05 12:55:00,
2013-09-05 08:10:00,68.2,62.0,30.13,East,79,0.0,1.0,81,0.00,,,0.00,weatherlink.com 1.10,2013-09-05 13:10:00,
2013-09-05 08:25:00,70.5,63.0,30.13,East,80,0.0,1.0,78,0.00,,,0.00,weatherlink.com 1.10,2013-09-05 13:25:00,
2013-09-05 08:40:00,72.8,64.0,30.14,East,81,0.0,0.0,74,0.00,,,0.00,weatherlink.com 1.10,2013-09-05 13:40:00,
2013-09-05 08:55:00,73.9,64.0,30.14,East,95,0.0,1.0,71,0.00,,,0.00,weatherlink.com 1.10,2013-09-05 13:55:00,
2013-09-05 09:10:00,76.4,65.0,30.14,East,95,0.0,1.0,68,0.00,,,0.00,weatherlink.com 1.10,2013-09-05 14:10:00,
2013-09-05 09:25:00,77.0,65.0,30.14,ENE,68,0.0,2.0,66,0.00,,,0.00,weatherlink.com 1.10,2013-09-05 14:25:00,
2013-09-05 09:40:00,77.4,66.0,30.14,NE,39,0.0,2.0,67,0.00,,,0.00,weatherlink.com 1.10,2013-09-05 14:40:00,
2013-09-05 09:55:00,77.7,64.0,30.15,SSW,211,1.0,1.0,63,0.00,,,0.00,weatherlink.com 1.10,2013-09-05 14:55:00,
2013-09-05 10:10:00,78.3,63.0,30.15,SW,218,1.0,3.0,59,0.00,,,0.00,weatherlink.com 1.10,2013-09-05 15:10:00,
2013-09-05 10:25:00,78.5,65.0,30.15,WNW,287,2.0,3.0,63,0.00,,,0.00,weatherlink.com 1.10,2013-09-05 15:25:00,
2013-09-05 10:40:00,78.9,64.0,30.16,NNE,12,1.0,2.0,61,0.00,,,0.00,weatherlink.com 1.10,2013-09-05 15:40:00,
2013-09-05 10:55:00,79.7,64.0,30.16,SW,219,1.0,3.0,58,0.00,,,0.00,weatherlink.com 1.10,2013-09-05 15:55:00,
2013-09-05 11:26:00,81.3,62.0,30.16,NW,323,1.0,2.0,53,0.00,,,0.00,weatherlink.com 1.10,2013-09-05 16:26:00,
2013-09-05 11:41:00,81.4,64.0,30.16,East,94,1.0,4.0,55,0.00,,,0.00,weatherlink.com 1.10,2013-09-05 16:41:00,
2013-09-05 11:56:00,83.8,63.0,30.15,East,101,0.0,2.0,49,0.00,,,0.00,weatherlink.com 1.10,2013-09-05 16:56:00,
2013-09-05 12:11:00,85.6,64.0,30.15,East,96,1.0,2.0,48,0.00,,,0.00,weatherlink.com 1.10,2013-09-05 17:11:00,
2013-09-05 12:26:00,85.3,64.0,30.14,WNW,302,1.0,3.0,49,0.00,,,0.00,weatherlink.com 1.10,2013-09-05 17:26:00,
2013-09-05 12:41:00,85.5,63.0,30.14,ENE,72,1.0,2.0,47,0.00,,,0.00,weatherlink.com 1.10,2013-09-05 17:41:00,
2013-09-05 12:56:00,86.2,63.0,30.14,ESE,118,2.0,3.0,46,0.00,,,0.00,weatherlink.com 1.10,2013-09-05 17:56:00,
2013-09-05 13:11:00,85.9,62.0,30.13,ENE,75,4.0,4.0,44,0.00,,,0.00,weatherlink.com 1.10,2013-09-05 18:11:00,
2013-09-05 13:26:00,87.2,62.0,30.12,ESE,123,1.0,3.0,43,0.00,,,0.00,weatherlink.com 1.10,2013-09-05 18:26:00,
2013-09-05 13:41:00,87.1,63.0,30.12,SE,127,0.0,3.0,45,0.00,,,0.00,weatherlink.com 1.10,2013-09-05 18:41:00,
2013-09-05 13:56:00,87.9,64.0,30.12,East,95,2.0,3.0,45,0.00,,,0.00,weatherlink.com 1.10,2013-09-05 18:56:00,
2013-09-05 14:11:00,87.8,63.0,30.11,East,89,3.0,5.0,44,0.00,,,0.00,weatherlink.com 1.10,2013-09-05 19:11:00,
2013-09-05 14:29:00,89.1,64.0,30.10,East,99,4.0,6.0,43,0.00,,,0.00,weatherlink.com 1.10,2013-09-05 19:29:00,
2013-09-05 14:41:00,87.6,63.0,30.10,East,97,3.0,4.0,44,0.00,,,0.00,weatherlink.com 1.10,2013-09-05 19:41:00,
2013-09-05 14:56:00,88.0,62.0,30.09,East,99,2.0,4.0,42,0.00,,,0.00,weatherlink.com 1.10,2013-09-05 19:56:00,
2013-09-05 15:11:00,89.6,64.0,30.09,NNE,33,3.0,3.0,43,0.00,,,0.00,weatherlink.com 1.10,2013-09-05 20:11:00,
2013-09-05 15:26:00,88.7,62.0,30.09,ESE,104,1.0,3.0,41,0.00,,,0.00,weatherlink.com 1.10,2013-09-05 20:26:00,
2013-09-05 15:41:00,90.0,63.0,30.08,ESE,116,1.0,2.0,40,0.00,,,0.00,weatherlink.com 1.10,2013-09-05 20:41:00,
2013-09-05 15:56:00,88.4,60.0,30.08,East,100,0.0,3.0,39,0.00,,,0.00,weatherlink.com 1.10,2013-09-05 20:56:00,
2013-09-05 16:11:00,88.8,62.0,30.08,ENE,74,3.0,3.0,41,0.00,,,0.00,weatherlink.com 1.10,2013-09-05 21:11:00,
2013-09-05 16:26:00,88.2,63.0,30.08,East,98,0.0,2.0,43,0.00,,,0.00,weatherlink.com 1.10,2013-09-05 21:26:00,
2013-09-05 16:41:00,88.1,63.0,30.08,ESE,103,1.0,3.0,43,0.00,,,0.00,weatherlink.com 1.10,2013-09-05 21:41:00,
2013-09-05 16:56:00,88.7,63.0,30.08,East,101,2.0,3.0,43,0.00,,,0.00,weatherlink.com 1.10,2013-09-05 21:56:00,
2013-09-05 17:11:00,88.5,63.0,30.08,East,81,1.0,2.0,43,0.00,,,0.00,weatherlink.com 1.10,2013-09-05 22:11:00,
2013-09-05 17:26:00,87.5,63.0,30.08,ESE,105,1.0,3.0,44,0.00,,,0.00,weatherlink.com 1.10,2013-09-05 22:26:00,
2013-09-05 17:41:00,86.2,62.0,30.07,East,97,1.0,3.0,45,0.00,,,0.00,weatherlink.com 1.10,2013-09-05 22:41:00,
2013-09-05 17:56:00,85.7,61.0,30.07,East,99,1.0,2.0,43,0.00,,,0.00,weatherlink.com 1.10,2013-09-05 22:56:00,
2013-09-05 18:11:00,85.0,61.0,30.07,East,101,2.0,2.0,45,0.00,,,0.00,weatherlink.com 1.10,2013-09-05 23:11:00,
2013-09-05 18:26:00,85.0,65.0,30.07,ESE,102,0.0,0.0,52,0.00,,,0.00,weatherlink.com 1.10,2013-09-05 23:26:00,
2013-09-05 18:41:00,83.1,64.0,30.06,East,101,0.0,0.0,53,0.00,,,0.00,weatherlink.com 1.10,2013-09-05 23:41:00,
2013-09-05 18:56:00,80.9,64.0,30.07,ESE,102,0.0,0.0,57,0.00,,,0.00,weatherlink.com 1.10,2013-09-05 23:56:00,
2013-09-05 19:11:00,78.3,64.0,30.07,ESE,102,0.0,0.0,61,0.00,,,0.00,weatherlink.com 1.10,2013-09-06 00:11:00,
2013-09-05 19:26:00,76.1,63.0,30.07,ESE,102,0.0,0.0,64,0.00,,,0.00,weatherlink.com 1.10,2013-09-06 00:26:00,
2013-09-05 19:41:00,74.4,63.0,30.07,ESE,102,0.0,0.0,68,0.00,,,0.00,weatherlink.com 1.10,2013-09-06 00:41:00,
2013-09-05 19:56:00,72.8,63.0,30.07,East,101,0.0,0.0,72,0.00,,,0.00,weatherlink.com 1.10,2013-09-06 00:56:00,
2013-09-05 20:11:00,71.6,63.0,30.07,ESE,102,0.0,0.0,74,0.00,,,0.00,weatherlink.com 1.10,2013-09-06 01:11:00,
2013-09-05 20:26:00,71.1,63.0,30.07,East,101,0.0,0.0,75,0.00,,,0.00,weatherlink.com 1.10,2013-09-06 01:26:00,
2013-09-05 20:41:00,71.1,63.0,30.08,East,101,0.0,1.0,75,0.00,,,0.00,weatherlink.com 1.10,2013-09-06 01:41:00,
2013-09-05 20:56:00,71.5,63.0,30.08,ESE,102,0.0,1.0,75,0.00,,,0.00,weatherlink.com 1.10,2013-09-06 01:56:00,
2013-09-05 21:11:00,70.2,63.0,30.08,ESE,102,0.0,0.0,77,0.00,,,0.00,weatherlink.com 1.10,2013-09-06 02:11:00,
2013-09-05 21:26:00,68.9,62.0,30.09,ESE,102,0.0,0.0,79,0.00,,,0.00,weatherlink.com 1.10,2013-09-06 02:26:00,
2013-09-05 21:41:00,68.2,63.0,30.09,East,101,0.0,0.0,82,0.00,,,0.00,weatherlink.com 1.10,2013-09-06 02:41:00,
2013-09-05 21:56:00,67.7,62.0,30.09,ESE,102,0.0,0.0,82,0.00,,,0.00,weatherlink.com 1.10,2013-09-06 02:56:00,
2013-09-05 22:11:00,67.1,62.0,30.10,East,101,0.0,0.0,84,0.00,,,0.00,weatherlink.com 1.10,2013-09-06 03:11:00,
2013-09-05 22:26:00,68.6,63.0,30.10,East,79,0.0,1.0,82,0.00,,,0.00,weatherlink.com 1.10,2013-09-06 03:26:00,
2013-09-05 22:41:00,69.4,63.0,30.10,ENE,74,1.0,1.0,80,0.00,,,0.00,weatherlink.com 1.10,2013-09-06 03:41:00,
2013-09-05 22:56:00,69.4,63.0,30.11,ENE,71,1.0,1.0,80,0.00,,,0.00,weatherlink.com 1.10,2013-09-06 03:56:00,
2013-09-05 23:11:00,69.5,63.0,30.11,ENE,73,0.0,1.0,80,0.00,,,0.00,weatherlink.com 1.10,2013-09-06 04:11:00,
2013-09-05 23:26:00,69.6,63.0,30.11,East,89,1.0,1.0,80,0.00,,,0.00,weatherlink.com 1.10,2013-09-06 04:26:00,
2013-09-05 23:41:00,69.6,63.0,30.11,ESE,105,1.0,1.0,79,0.00,,,0.00,weatherlink.com 1.10,2013-09-06 04:41:00,
2013-09-05 23:56:00,69.0,63.0,30.11,ESE,108,1.0,2.0,81,0.00,,,0.00,weatherlink.com 1.10,2013-09-06 04:56:00,